Tracking 28790 objects as of 19-Apr-2024
HD Live streaming from Space Station
objects crossing your sky now

GLOBALSTAR M092

Track GLOBALSTAR M092 now!
10-day predictions
GLOBALSTAR M092 is classified as:


NORAD ID: 38043
Int'l Code: 2011-080D
Perigee: 1,420.2 km
Apogee: 1,421.2 km
Inclination: 52.0 °
Period: 114.1 minutes
Semi major axis: 7791 km
RCS: 5.0785 m2 (large)
Launch date: December 28, 2011
Source: Globalstar (GLOB)
Launch site: TYURATAM MISSILE AND SPACE COMPLEX (TTMTR)
Your satellite tracking list
Your tracking list is empty




NASA's NSSDC Master Catalog

Two Line Element Set (TLE):
1 38043U 11080D   24109.51647106 -.00000043  00000-0  33742-3 0  9994
2 38043  52.0084 308.5394 0000608 108.8772 267.9330 12.62278453568322
Source of the keplerian elements: AFSPC